Regional Weather Roundup
Issued by NWS Goodland, KS

Home | Current Version | Previous Version | Graphics & Text | Print | Product List | Glossary On
Versions: 1 2 3 4 5 6 7 8 9 10 11 12 13 14 15 16 17 18 19 20 21 22 23 24 25 26 27 28 29 30 31 32 33 34 35 36 37 38 39 40 41 42 43 44 45 46 47 48 49 50
000
ASUS43 KGLD 291908
RWRGLD

GOODLAND FORECAST AREA HOURLY WEATHER ROUNDUP
NATIONAL WEATHER SERVICE GOODLAND KS
100 PM MDT SUN MAY 29 2016

...OFFICIAL OBSERVATIONS...

CITY           SKY/WX    TMP DP  RH WIND       PRES   REMARKS
GOODLAND KS    SUNNY     80  55  42 S14G26    30.08F
HILL CITY KS   MOSUNNY   86  54  33 S9        30.07F
IMPERIAL NEB   SUNNY     78  53  41 MISG      30.07F
MCCOOK NEB     SUNNY     81  56  42 SW7       30.06F
AKRON CO       SUNNY     75  47  36 SE9       30.12F
BURLINGTON CO  SUNNY     79  49  34 S16       30.11F
LIMON CO       SUNNY     73  47  39 S14       30.14F
$$

...UNOFFICIAL OBSERVATIONS...

CITY           SKY/WX    TMP DP  RH WIND       PRES   REMARKS
GOVE KS          N/A     80  32  17 MISG        N/A
LENORA KS        N/A     81  32  17 MISG        N/A
SHARON SPRINGS   N/A     82  61  48 S15         N/A
TRIBUNE KS     SUNNY     82  57  42 S17G24    30.10F
KIT CARSON CO    N/A     78  48  34 MISG        N/A
YUMA CO          N/A     78  50  37 CALM        N/A
$$




USA.gov is the U.S. government's official web portal to all federal, state and local government web resources and services.